Anniston, AL

1:12 AM CDT on April 26, 2018 (GMT -0500)
Anniston Metro

Weather History for KANB - March, 2013

Change the Weather History Date:

Saturday, March 9, 2013

  Actual Average Record
Temperature  
Mean Temperature 54 °F 53 °F  
Max Temperature 68 °F 64 °F 89 °F (1974)
Min Temperature 40 °F 42 °F 18 °F (1996)
Degree Days  
Heating Degree Days 11    
Month to date heating degree days 158  
Since 1 July heating degree days 2221  
Growing Degree Days 4 (Base 50)    
Moisture  
Dew Point 30 °F    
Average Humidity 50    
Maximum Humidity 73    
Minimum Humidity 26    
Precipitation  
Precipitation 0.00 in 0.16 in 3.68 in (2011)
Month to date precipitation 0.23 1.56  
Year to date precipitation 14.18 11.16  
Sea Level Pressure  
Sea Level Pressure 30.21 in    
Wind  
Wind Speed 6 mph (ENE)    
Max Wind Speed 14 mph    
Max Gust Speed 21 mph    
Visibility 10 miles    
Events      
T = Trace of Precipitation, MM = Missing Value Source: NWS Daily Summary

Daily Weather History Graph

Daily Weather History Graph

Search for Another Location

Airport or City:

Astronomy

Mar. 09, 2013 Rise Set
Actual Time 6:01 AM CST 5:46 PM CST
Civil Twilight 5:36 AM CST 6:11 PM CST
Nautical Twilight 5:07 AM CST 6:40 PM CST
Astronomical Twilight 4:38 AM CST 7:09 PM CST
Moon 4:19 AM CST (3/9) 3:51 PM CST (3/9)
Length of Visible Light 12h 35m
Length of Day
11h 45m
Waning Crescent, 5% of the Moon is Illuminated
Mar 9
Waning Crescent
Mar 11
New
Mar 19
First Quarter
Mar 27
Full
Apr 2
Last Quarter

Hourly Weather History & Observations

Time (CST) Temp. Windchill Dew Point Humidity Pressure Visibility Wind Dir Wind Speed Gust Speed Precip Events Conditions
12:53 AM 39.9 °F 37.8 °F 30.9 °F 70% 30.25 in 10.0 mi ENE 3.5 mph - N/A   Clear
1:53 AM 42.1 °F 39.2 °F 27.0 °F 55% 30.23 in 10.0 mi NE 4.6 mph - N/A   Clear
3:53 AM 43.0 °F 41.3 °F 25.0 °F 49% 30.23 in 10.0 mi NE 3.5 mph - N/A   Clear
4:53 AM 42.1 °F 40.2 °F 26.1 °F 53% 30.26 in 10.0 mi NE 3.5 mph - N/A   Clear
5:53 AM 41.0 °F 37.1 °F 27.0 °F 57% 30.27 in 10.0 mi NE 5.8 mph - N/A   Clear
6:53 AM 42.1 °F 37.1 °F 26.1 °F 53% 30.29 in 10.0 mi NE 8.1 mph - N/A   Clear
7:53 AM 46.9 °F - 25.0 °F 42% 30.30 in 10.0 mi NE 11.5 mph - N/A   Clear
8:53 AM 53.1 °F - 28.9 °F 40% 30.29 in 10.0 mi ENE 8.1 mph - N/A   Clear
9:53 AM 61.0 °F - 30.9 °F 32% 30.28 in 10.0 mi Calm Calm - N/A   Clear
10:53 AM 63.0 °F - 30.9 °F 30% 30.25 in 10.0 mi ESE 11.5 mph - N/A   Clear
11:53 AM 64.0 °F - 32.0 °F 30% 30.24 in 10.0 mi ESE 5.8 mph - N/A   Clear
12:53 PM 64.0 °F - 30.9 °F 29% 30.22 in 10.0 mi SE 5.8 mph - N/A   Clear
1:53 PM 68.0 °F - 32.0 °F 26% 30.19 in 10.0 mi Variable 3.5 mph - N/A   Clear
2:53 PM 66.9 °F - 30.9 °F 26% 30.18 in 10.0 mi SSE 8.1 mph - N/A   Clear
3:53 PM 66.9 °F - 30.9 °F 26% 30.17 in 10.0 mi East 6.9 mph - N/A   Clear
4:53 PM 66.0 °F - 30.0 °F 26% 30.17 in 10.0 mi ESE 4.6 mph - N/A   Clear
5:53 PM 64.0 °F - 30.9 °F 29% 30.17 in 10.0 mi East 3.5 mph - N/A   Clear
6:53 PM 62.1 °F - 30.9 °F 31% 30.18 in 10.0 mi East 5.8 mph - N/A   Clear
7:53 PM 60.1 °F - 32.0 °F 35% 30.17 in 9.0 mi NE 3.5 mph - N/A   Clear
8:53 PM 57.9 °F - 33.1 °F 39% 30.17 in 7.0 mi NE 4.6 mph - N/A   Clear
9:53 PM 55.9 °F - 34.0 °F 44% 30.16 in 8.0 mi ENE 6.9 mph - N/A   Clear
10:53 PM 57.9 °F - 30.9 °F 36% 30.11 in 10.0 mi East 11.5 mph 20.7 mph N/A   Clear
11:53 PM 57.9 °F - 30.9 °F 36% 30.13 in 10.0 mi East 5.8 mph - N/A   Clear